Printer-friendly version

IAU Minor Planet Center

Minor Planet Center

MPEC 2007-F11 : 2007 EG88

The following Minor Planet Electronic Circular may be linked-to from your own Web pages, but must not otherwise be redistributed electronically.


Read MPEC 2007-F10 Read MPEC 2007-F12


M.P.E.C. 2007-F11                                Issued 2007 Mar. 16, 19:19 UT

     The Minor Planet Electronic Circulars contain information on unusual
         minor planets and routine data on comets.  They are published
   on behalf of Commission 20 of the International Astronomical Union by the
          Minor Planet Center, Smithsonian Astrophysical Observatory,
                          Cambridge, MA 02138, U.S.A.

             Prepared using the Tamkin Foundation Computer Network

                              MPC@CFA.HARVARD.EDU
          URL http://cfa-www.harvard.edu/iau/mpc.html  ISSN 1523-6714

                                   2007 EG88

Observations:
     K07E88G* C2007 03 14.29338 10 10 21.54 +12 48 38.3          21.0 V EF011G96
     K07E88G  C2007 03 14.30079 10 10 24.42 +12 48 34.5          20.8 V EF011G96
     K07E88G  C2007 03 14.30828 10 10 27.37 +12 48 30.9          21.3 V EF011G96
     K07E88G  C2007 03 14.31575 10 10 30.32 +12 48 27.6          21.5 V EF011G96
     K07E88G  C2007 03 14.43686 10 11 20.70 +12 47 20.4          21.8 V EF011G96
     K07E88G  C2007 03 14.43756 10 11 21.07 +12 47 20.6          21.7 V EF011G96
     K07E88G  C2007 03 14.43827 10 11 21.34 +12 47 20.1          21.8 V EF011G96
     K07E88G FC2007 03 14.93311 10 15 34.72 +12 43 16.3                 EF011246
     K07E88G FC2007 03 14.93471 10 15 35.46 +12 43 14.9                 EF011246
     K07E88G FC2007 03 14.93567 10 15 36.02 +12 43 13.0                 EF011246
     K07E88G  C2007 03 14.96748 10 15 53.07 +12 42 52.1                 EF011J95
     K07E88G  C2007 03 14.97777 10 15 57.69 +12 42 46.5          21.2 R EF011J95
     K07E88G  C2007 03 15.02567 10 16 19.74 +12 42 21.0                 EF011J95
     K07E88G  C2007 03 15.03600 10 16 24.55 +12 42 16.0          21.0 R EF011J95
     K07E88G tC2007 03 15.22219 10 18 10.08 +12 41 50.7          21.4 V EF011291
     K07E88G tC2007 03 15.22614 10 18 11.99 +12 41 49.8          21.5 V EF011291
     K07E88G tC2007 03 15.23016 10 18 13.80 +12 41 47.8          21.2 V EF011291
     K07E88G  C2007 03 15.24024 10 18 18.14 +12 41 41.7          21.1 V EF011G96
     K07E88G  C2007 03 15.24112 10 18 18.54 +12 41 41.2          20.6 V EF011G96
     K07E88G  C2007 03 15.24200 10 18 18.97 +12 41 40.8          20.5 V EF011G96
     K07E88G  C2007 03 15.24288 10 18 19.36 +12 41 40.2          20.3 V EF011G96
     K07E88G  C2007 03 15.29067 10 18 41.14 +12 41 15.1          20.2 V EF011G96
     K07E88G  C2007 03 15.29315 10 18 42.26 +12 41 13.6          20.1 V EF011G96
     K07E88G  C2007 03 15.29561 10 18 43.41 +12 41 12.1          20.5 V EF011G96
     K07E88G  C2007 03 15.29808 10 18 44.53 +12 41 11.0          20.4 V EF011G96
     K07E88G 5C2007 03 15.33967 10 19 05.38 +12 40 38.7          20.9 R EF011673
     K07E88G 5C2007 03 15.34670 10 19 08.74 +12 40 35.3                 EF011673
     K07E88G 5C2007 03 15.35729 10 19 13.71 +12 40 28.6                 EF011673
     K07E88G 5C2007 03 15.36363 10 19 16.75 +12 40 24.5                 EF011673
     K07E88G 5C2007 03 16.19560 10 27 32.36 +12 31 56.5          20.8 R EF011673
     K07E88G 5C2007 03 16.19860 10 27 34.14 +12 31 54.8                 EF011673
     K07E88G 5C2007 03 16.21355 10 27 42.27 +12 31 46.7                 EF011673
     K07E88G 5C2007 03 16.21944 10 27 45.42 +12 31 42.8                 EF011673
     K07E88G  C2007 03 16.23478 10 27 48.75 +12 31 16.8          21.2 R EF011734
     K07E88G  C2007 03 16.24015 10 27 51.67 +12 31 13.7          21.3 R EF011734
     K07E88G  C2007 03 16.24612 10 27 55.01 +12 31 07.9          21.2 R EF011734
     K07E88G  C2007 03 16.25376 10 28 02.35 +12 31 28.8          20.1 V EF011G96
     K07E88G  C2007 03 16.25446 10 28 02.67 +12 31 28.3          21.1 V EF011G96
     K07E88G  C2007 03 16.25517 10 28 03.10 +12 31 28.2          21.4 V EF011G96
     K07E88G  C2007 03 16.25587 10 28 03.46 +12 31 27.8          21.1 V EF011G96

Observer details:
246 Klet Observatory-KLENOT.  Observer M. Tichy.  1.06-m KLENOT Telescope
    + CCD.
291 LPL/Spacewatch II.  Observer T. H. Bressi.  1.8-m f/2.7 reflector + CCD.
673 Table Mountain Observatory, Wrightwood.  Observer D. Mayes.  0.4-m
    reflector + CCD, 0.6-m reflector + CCD.
734 Farpoint Observatory.  Observer D. Tibbets.  Measurer G. Hug.  0.7-m
    reflector + CCD.
G96 Mt. Lemmon Survey.  Observer A. R. Gibbs.  Measurers E. C. Beshore,
    E. J. Christensen, G. J. Garradd, A. R. Gibbs, A. D. Grauer, R. E. Hill,
    R. A. Kowalski, S. M. Larson, R. H. McNaught.  1.5-m reflector + CCD.
J95 Great Shefford.  Observer P. Birtwhistle.  0.40-m f/6.0 Schmidt-Cassegrain
    + CCD.

Orbital elements:
2007 EG88                                                Earth MOID = 0.0121 AU
Epoch 2007 Apr. 10.0 TT = JDT 2454200.5                 MPC
M   2.73805              (2000.0)            P               Q
n   0.48029409     Peri.   27.25392     -0.96182190     +0.27365445
a   1.6148464      Node   168.62632     -0.25416929     -0.88852539
e   0.3748070      Incl.    1.00147     -0.10147223     -0.36828775
P   2.05           H   27.0           G   0.15           U   7
Residuals in seconds of arc
070314 G96  0.6+  0.8+    070315 291  1.0-  0.7-    070315 673  0.8+  0.2+
070314 G96  0.2+  0.3+    070315 291  0.7+  0.2+    070316 673  1.8-  0.3+
070314 G96  0.2+  0.0     070315 291  0.5+  0.0     070316 673  0.4+  0.3+
070314 G96  0.2+  0.2+    070315 G96  0.2-  0.3+    070316 673  0.5+  0.8+
070314 G96  0.5-  0.1-    070315 G96  0.2-  0.3+    070316 673  0.1-  0.3+
070314 G96  0.3+  0.5+    070315 G96  0.3+  0.3+    070316 734  0.7+  0.8-
070314 G96  0.3-  0.4+    070315 G96  0.1+  0.1+    070316 734  0.9+  0.1+
070314 246  1.4-  0.4+    070315 G96  0.1+  0.4+    070316 734 (2.4+  1.3-)
070314 246  1.1-  0.2-    070315 G96  0.2-  0.3+    070316 G96  0.1+  0.2-
070314 246  0.8+  1.6-    070315 G96  0.1+  0.2+    070316 G96  0.7-  0.2-
070314 J95  0.5+  0.0     070315 G96  0.1-  0.6+    070316 G96  0.0   0.2+
070314 J95  0.5-  0.5-    070315 673  0.2-  1.0-    070316 G96  0.2-  0.2+
070315 J95  0.1-  0.4-    070315 673  0.7+  0.0
070315 J95  0.1-  0.5+    070315 673  0.3+  0.1+

Ephemeris:
2007 EG88                a,e,i = 1.61, 0.37, 1                   q = 1.0096
Date    TT    R. A. (2000) Decl.     Delta      r     Elong.  Phase     V
2007 03 11    09 49.92   +13 01.6    0.0519   1.041   155.3    23.5    21.8
2007 03 13    10 01.24   +12 56.2    0.0459   1.036   155.9    23.0    21.5
2007 03 15    10 16.17   +12 44.9    0.0401   1.031   157.3    21.8    21.1
2007 03 17    10 36.23   +12 23.0    0.0346   1.027   159.8    19.5    20.7
2007 03 19    11 03.66   +11 42.2    0.0295   1.024   163.8    15.8    20.3
2007 03 21    11 41.56   +10 27.1    0.0250   1.021   168.7    11.1    19.7
2007 03 23    12 33.10   +08 14.6    0.0216   1.018   168.9    10.9    19.4
2007 03 25    13 38.29   +04 47.7    0.0196   1.015   158.1    21.5    19.5
2007 03 27    14 49.44   +00 31.1    0.0196   1.013   142.9    36.4    20.0
2007 03 29    15 54.06   -03 27.4    0.0214   1.012   128.8    50.3    20.5
2007 03 31    16 45.00   -06 25.1    0.0247   1.011   118.0    60.8    21.2
2007 04 02    17 22.64   -08 24.5    0.0289   1.010   110.6    67.9    21.7
2007 04 04    17 50.18   -09 43.6    0.0337   1.010   105.8    72.4    22.2
2007 04 06    18 10.63   -10 37.2    0.0388   1.010   102.7    75.1    22.6
2007 04 08    18 26.17   -11 14.9    0.0441   1.010   100.9    76.7    22.9
2007 04 10    18 38.25   -11 42.4    0.0496   1.011    99.9    77.3    23.2

Kyle E. Smalley              (C) Copyright 2007 MPC           M.P.E.C. 2007-F11

Read MPEC 2007-F10 Read MPEC 2007-F12


Our Web policy. Index to the CBAT/MPC/ICQ pages.


Valid HTML 4.01!